Regional Weather Roundup
Issued by NWS

Home | Current Version | Previous Version | Graphics & Text | Print | Product List | Glossary On
Versions: 1 2 3 4 5 6 7 8 9 10 11 12 13 14 15 16 17 18 19 20 21 22 23 24 25 26 27 28 29 30 31 32 33 34 35 36 37 38 39 40 41 42 43 44 45 46 47 48 49 50
000
ASUS44 KMEG 020310
RWRTN
TENNESSEE HOURLY STATE WEATHER ROUNDUP
NATIONAL WEATHER SERVICE MEMPHIS TN
900 PM CST SUN MAR 01 2015

TNZ002-004-019-021-049-052-054-088>092-020400-
WEST TENNESSEE

CITY           SKY/WX    TMP DP  RH WIND       PRES   REMARKS
MEMPHIS INTL   LGT RAIN  39  36  89 N8        30.38R FOG     WCI  33
NWS MEMPHIS      N/A     38 N/A N/A MISG        N/A
JACKSON        CLOUDY    38  36  92 N6        30.37S FOG     WCI  33
DYERSBURG      CLOUDY    34  21  60 N3        30.42R
UNION CITY     CLOUDY    32  32 100 N5        30.38R WCI  27
PARIS          CLOUDY    34  32  93 N6        30.36S WCI  29
LEXINGTON      CLOUDY    45  45 100 NW8       30.34R
SAVANNAH       CLOUDY    50  50 100 CALM      30.33S
$$

TNZ008-025-027-028-033-062-065-066-020400-
NORTH MIDDLE TENNESSEE

CITY           SKY/WX    TMP DP  RH WIND       PRES   REMARKS
NASHVILLE      FOG       48  48 100 S3        30.30F VSB 1/2
CLARKSVILLE    CLOUDY    36  35  96 N7        30.35R FOG     WCI  30
SMYRNA         LGT RAIN  48  48 100 CALM      30.32F FOG
COOKEVILLE     CLOUDY    48  48 100 CALM      30.30R
CROSSVILLE     CLOUDY    45  43  93 VRB5      30.29F FOG
$$

TNZ061-075-076-078-094-096-097-020400-
SOUTH MIDDLE TENNESSEE

CITY           SKY/WX    TMP DP  RH WIND       PRES   REMARKS
FAYETTEVILLE   CLOUDY    46  46 100 S3          N/A
TULLAHOMA      CLOUDY    46  46 100 S6        30.32R
WINCHESTER     CLOUDY    46  46 100 SE5       30.33R
MCMINNVILLE    CLOUDY    48  48 100 SW6       30.32R
COLUMBIA       CLOUDY   N/A N/A N/A CALM      30.30S
SHELBYVILLE    CLOUDY    50  48  93 CALM      30.32S
$$

TNZ017-018-042-046-047-020400-
NORTHEAST TENNESSEE

CITY           SKY/WX    TMP DP  RH WIND       PRES   REMARKS
TRI CITIES     CLOUDY    44  42  93 W3        30.33R
ELIZABETHTON   CLOUDY    45  43  93 CALM      30.31S
$$

TNZ012-013-036-069-073-074-020400-
CENTRAL EAST TENNESSEE

CITY           SKY/WX    TMP DP  RH WIND       PRES   REMARKS
KNOXVILLE      CLOUDY    44  43  96 CALM      30.33S FOG
OAK RIDGE      LGT RAIN  45  43  93 VRB3      30.34S FOG
GATLINBURG     CLOUDY    43  41  93 CALM      30.32R
MORRISTOWN     CLOUDY    43  43 100 CALM      30.32S
$$

TNZ083-085-099-020400-
SOUTHEAST TENNESSEE

CITY           SKY/WX    TMP DP  RH WIND       PRES   REMARKS
CHATTANOOGA    CLOUDY    47  44  90 CALM      30.36S FOG
$$

SKY/WX REPORTED AS FAIR MEANS FEW OR NO CLOUDS BELOW
12 THOUSAND FEET.



USA.gov is the U.S. government's official web portal to all federal, state and local government web resources and services.